| time (UTC) | temp C | wind direction | speed KPH | gust KPH | rain 1hr cm | rain 24hr cm | rain mn cm | humidity % | barometer mb |
| 20260508095153 | 10 | 312 | 1.6 | 8.0 | 0.13 | 1.45 | 0.79 | 90 | 999.0 |
| 20260508094231 | 10 | 300 | 1.6 | 6.4 | 0.13 | 1.42 | 0.76 | 90 | 998.9 |
| 20260508093149 | 10 | 287 | 1.6 | 6.4 | 0.13 | 1.40 | 0.76 | 90 | 998.7 |
| 20260508092148 | 10 | 323 | 1.6 | 6.4 | 0.15 | 1.37 | 0.74 | 90 | 998.8 |
| 20260508091146 | 10 | 291 | 3.2 | 8.0 | 0.15 | 1.35 | 0.71 | 90 | 998.7 |
| 20260508090143 | 10 | 288 | 3.2 | 11.3 | 0.15 | 1.35 | 0.69 | 90 | 998.7 |
| 20260508085141 | 10 | 315 | 3.2 | 11.3 | 0.15 | 1.32 | 0.66 | 90 | 998.6 |
| 20260508084139 | 10 | 317 | 3.2 | 9.7 | 0.15 | 1.30 | 0.64 | 90 | 998.6 |
| 20260508083157 | 10 | 305 | 3.2 | 6.4 | 0.15 | 1.27 | 0.61 | 90 | 998.6 |
| 20260508082135 | 10 | 307 | 1.6 | 6.4 | 0.13 | 1.24 | 0.58 | 90 | 998.6 |
| 20260508081153 | 10 | 308 | 1.6 | 6.4 | 0.10 | 1.22 | 0.56 | 90 | 998.5 |
| 20260508080131 | 10 | 306 | 1.6 | 4.8 | 0.13 | 1.19 | 0.53 | 90 | 998.5 |
| 20260508075130 | 10 | 289 | 1.6 | 6.4 | 0.13 | 1.17 | 0.51 | 90 | 998.3 |
| 20260508074127 | 10 | 299 | 1.6 | 6.4 | 0.10 | 1.14 | 0.48 | 90 | 998.2 |
| 20260508073126 | 10 | 289 | 1.6 | 6.4 | 0.10 | 1.12 | 0.46 | 90 | 998.1 |
| 20260508072124 | 10 | 311 | 3.2 | 6.4 | 0.13 | 1.12 | 0.46 | 90 | 998.0 |
| 20260508071121 | 9 | 315 | 1.6 | 6.4 | 0.15 | 1.09 | 0.46 | 90 | 998.0 |
| 20260508070138 | 9 | 301 | 1.6 | 6.4 | 0.13 | 1.07 | 0.41 | 90 | 997.9 |
| 20260508065118 | 9 | 321 | 1.6 | 9.7 | 0.13 | 1.04 | 0.38 | 90 | 998.0 |
| 20260508064116 | 9 | 315 | 1.6 | 6.4 | 0.15 | 1.04 | 0.38 | 90 | 997.9 |
| 20260508063113 | 9 | 356 | 1.6 | 6.4 | 0.15 | 0.99 | 0.36 | 90 | 997.8 |
| 20260508062111 | 9 | 322 | 1.6 | 6.4 | 0.15 | 0.97 | 0.33 | 90 | 997.7 |
| 20260508061110 | 9 | 324 | 1.6 | 6.4 | 0.15 | 0.97 | 0.30 | 90 | 997.7 |
| 20260508060107 | 9 | 297 | 1.6 | 6.4 | 0.15 | 0.94 | 0.28 | 90 | 997.6 |
| 20260508055105 | 9 | 292 | 1.6 | 6.4 | 0.13 | 0.91 | 0.28 | 90 | 997.6 |
| 20260508054103 | 9 | 300 | 1.6 | 8.0 | 0.10 | 0.86 | 0.23 | 90 | 997.4 |
| 20260508053101 | 9 | 0 | 1.6 | 8.0 | 0.08 | 0.84 | 0.18 | 90 | 997.5 |
| 20260508052059 | 9 | 300 | 1.6 | 6.4 | 0.08 | 0.84 | 0.18 | 90 | 997.5 |
| 20260508051057 | 9 | 305 | 1.6 | 9.7 | 0.08 | 0.81 | 0.15 | 90 | 997.3 |
| 20260508050055 | 9 | 295 | 1.6 | 6.4 | 0.08 | 0.79 | 0.15 | 90 | 997.3 |
| 20260508045054 | 9 | 344 | 3.2 | 9.7 | 0.05 | 0.79 | 0.13 | 90 | 997.4 |
| 20260508044051 | 9 | 312 | 1.6 | 6.4 | 0.05 | 0.76 | 0.13 | 90 | 997.2 |
| 20260508043149 | 9 | 315 | 1.6 | 9.7 | 0.05 | 0.76 | 0.10 | 90 | 997.2 |
| 20260508042108 | 9 | 346 | 3.2 | 9.7 | 0.03 | 0.76 | 0.10 | 90 | 997.1 |
| 20260508041045 | 9 | 325 | 3.2 | 6.4 | 0.03 | 0.74 | 0.10 | 90 | 997.1 |
| 20260508040043 | 9 | 281 | 3.2 | 8.0 | 0.03 | 0.74 | 0.08 | 90 | 997.2 |
| 20260508035041 | 9 | 315 | 3.2 | 8.0 | 0.03 | 0.74 | 0.08 | 90 | 997.2 |
| 20260508034039 | 9 | 298 | 3.2 | 6.4 | 0.03 | 0.74 | 0.08 | 89 | 997.1 |
| 20260508033037 | 9 | 296 | 3.2 | 9.7 | 0.03 | 0.71 | 0.08 | 89 | 997.0 |
| 20260508032035 | 9 | 303 | 3.2 | 11.3 | 0.03 | 0.71 | 0.08 | 89 | 997.1 |
| 20260508031033 | 9 | 311 | 3.2 | 8.0 | 0.03 | 0.71 | 0.08 | 89 | 997.0 |
| 20260508030031 | 9 | 318 | 1.6 | 4.8 | 0.03 | 0.71 | 0.05 | 89 | 997.0 |
| 20260508025029 | 9 | 330 | 1.6 | 6.4 | 0.03 | 0.71 | 0.05 | 89 | 996.9 |
| 20260508024027 | 9 | 334 | 1.6 | 6.4 | 0.03 | 0.69 | 0.05 | 88 | 996.7 |
| 20260508023025 | 9 | 351 | 1.6 | 8.0 | 0.03 | 0.69 | 0.05 | 88 | 996.8 |
| 20260508022023 | 9 | 306 | 1.6 | 6.4 | 0.03 | 0.69 | 0.05 | 88 | 996.9 |
| 20260508021021 | 9 | 306 | 1.6 | 4.8 | 0.03 | 0.69 | 0.05 | 88 | 996.9 |
| 20260508020019 | 9 | 333 | 1.6 | 4.8 | 0.03 | 0.69 | 0.03 | 88 | 996.8 |
| 20260508015037 | 9 | 329 | 1.6 | 6.4 | 0.03 | 0.69 | 0.03 | 87 | 996.9 |
| 20260508014035 | 10 | 326 | 1.6 | 4.8 | 0.03 | 0.69 | 0.03 | 87 | 997.0 |
| 20260508013033 | 10 | 323 | 1.6 | 6.4 | 0.03 | 0.69 | 0.03 | 87 | 997.1 |
| 20260508012011 | 10 | 270 | 1.6 | 3.2 | 0.03 | 0.69 | 0.03 | 86 | 997.1 |
| 20260508011009 | 10 | 0 | 1.6 | 6.4 | 0.03 | 0.69 | 0.03 | 86 | 997.2 |
| 20260508010007 | 10 | 294 | 1.6 | 6.4 | 0.00 | 0.66 | 0.00 | 85 | 997.0 |
| 20260508005005 | 10 | 315 | 1.6 | 6.4 | 0.00 | 0.66 | 0.00 | 85 | 996.8 |
| 20260508004003 | 10 | 311 | 1.6 | 6.4 | 0.00 | 0.66 | 0.00 | 84 | 996.8 |
| 20260508003001 | 10 | 291 | 1.6 | 6.4 | 0.00 | 0.66 | 0.00 | 84 | 996.8 |
| 20260508002019 | 10 | 291 | 3.2 | 8.0 | 0.00 | 0.66 | 0.00 | 84 | 997.0 |
| 20260508000957 | 10 | 270 | 1.6 | 4.8 | 0.00 | 0.66 | 0.00 | 84 | 996.9 |
| 20260507235955 | 10 | 308 | 1.6 | 6.4 | 0.00 | 0.66 | 0.00 | 84 | 996.8 |
| 20260507234953 | 10 | 341 | 1.6 | 9.7 | 0.00 | 0.66 | 0.00 | 84 | 997.0 |
| 20260507233952 | 10 | 341 | 1.6 | 8.0 | 0.00 | 0.66 | 0.00 | 84 | 997.0 |
| 20260507232949 | 10 | 315 | 1.6 | 6.4 | 0.00 | 0.66 | 0.00 | 84 | 997.1 |
| 20260507231946 | 10 | 323 | 1.6 | 6.4 | 0.00 | 0.66 | 0.00 | 83 | 997.0 |
| 20260507231006 | 10 | 11 | 1.6 | 6.4 | 0.00 | 0.66 | 0.00 | 84 | 996.9 |
| 20260507230003 | 10 | 347 | 1.6 | 4.8 | 0.00 | 0.66 | 0.00 | 84 | 997.0 |
| 20260507224941 | 11 | 348 | 1.6 | 6.4 | 0.00 | 0.66 | 0.00 | 84 | 997.0 |
| 20260507224020 | 11 | 41 | 1.6 | 6.4 | 0.00 | 0.66 | 0.00 | 84 | 996.8 |
| 20260507222938 | 11 | 23 | 1.6 | 6.4 | 0.00 | 0.66 | 0.00 | 84 | 996.9 |
| 20260507221936 | 11 | 38 | 1.6 | 9.7 | 0.00 | 0.66 | 0.00 | 84 | 996.8 |
| 20260507220934 | 11 | 57 | 3.2 | 6.4 | 0.00 | 0.66 | 0.00 | 85 | 996.7 |
| 20260507215931 | 11 | 331 | 3.2 | 8.0 | 0.00 | 0.66 | 0.66 | 84 | 996.7 |
| 20260507214929 | 11 | 318 | 1.6 | 6.4 | 0.00 | 0.66 | 0.66 | 84 | 996.7 |
| 20260507213947 | 11 | 270 | 3.2 | 6.4 | 0.00 | 0.66 | 0.66 | 84 | 996.8 |
| 20260507212925 | 11 | 293 | 3.2 | 6.4 | 0.00 | 0.66 | 0.66 | 84 | 996.7 |
| 20260507211923 | 11 | 297 | 3.2 | 8.0 | 0.00 | 0.66 | 0.66 | 83 | 996.6 |
| 20260507210941 | 11 | 301 | 1.6 | 8.0 | 0.00 | 0.66 | 0.66 | 83 | 996.6 |
| 20260507205920 | 11 | 309 | 1.6 | 6.4 | 0.00 | 0.66 | 0.66 | 83 | 996.7 |
| 20260507204917 | 11 | 341 | 1.6 | 6.4 | 0.00 | 0.66 | 0.66 | 83 | 996.5 |
| 20260507203915 | 11 | 270 | 1.6 | 6.4 | 0.00 | 0.66 | 0.66 | 83 | 996.4 |
| 20260507202913 | 11 | 291 | 1.6 | 8.0 | 0.00 | 0.66 | 0.66 | 83 | 996.1 |
| 20260507201911 | 11 | 279 | 3.2 | 8.0 | 0.00 | 0.66 | 0.66 | 83 | 996.0 |
| 20260507200929 | 11 | 286 | 1.6 | 6.4 | 0.00 | 0.66 | 0.66 | 83 | 996.2 |
| 20260507195907 | 12 | 292 | 3.2 | 9.7 | 0.00 | 0.66 | 0.66 | 83 | 996.1 |
| 20260507194925 | 12 | 287 | 4.8 | 11.3 | 0.00 | 0.66 | 0.66 | 83 | 996.1 |
| 20260507193923 | 12 | 298 | 3.2 | 9.7 | 0.00 | 0.66 | 0.66 | 82 | 996.0 |
| 20260507192921 | 12 | 288 | 3.2 | 8.0 | 0.00 | 0.66 | 0.66 | 82 | 995.8 |
| 20260507191859 | 12 | 283 | 3.2 | 11.3 | 0.00 | 0.66 | 0.66 | 82 | 995.9 |
| 20260507190936 | 12 | 334 | 1.6 | 8.0 | 0.00 | 0.66 | 0.66 | 82 | 995.8 |
| 20260507185856 | 12 | 282 | 3.2 | 8.0 | 0.00 | 0.66 | 0.66 | 82 | 995.7 |
| 20260507184853 | 13 | 300 | 1.6 | 9.7 | 0.00 | 0.66 | 0.66 | 82 | 995.4 |
| 20260507183850 | 13 | 288 | 3.2 | 8.0 | 0.00 | 0.66 | 0.66 | 81 | 995.4 |
| 20260507182850 | 13 | 286 | 3.2 | 8.0 | 0.00 | 0.66 | 0.66 | 80 | 995.2 |
| 20260507181847 | 13 | 292 | 4.8 | 12.9 | 0.00 | 0.66 | 0.66 | 80 | 995.0 |
| 20260507180845 | 13 | 286 | 3.2 | 8.0 | 0.00 | 0.66 | 0.66 | 79 | 995.0 |
| 20260507175843 | 14 | 270 | 1.6 | 9.7 | 0.00 | 0.66 | 0.66 | 79 | 994.8 |
| 20260507174842 | 14 | 289 | 3.2 | 8.0 | 0.00 | 0.66 | 0.66 | 79 | 994.8 |
| 20260507173839 | 14 | 286 | 1.6 | 6.4 | 0.00 | 0.66 | 0.66 | 78 | 994.6 |
| 20260507172836 | 15 | 285 | 4.8 | 9.7 | 0.00 | 0.66 | 0.66 | 77 | 994.4 |
| 20260507171835 | 15 | 290 | 4.8 | 11.3 | 0.00 | 0.66 | 0.66 | 77 | 994.2 |
| 20260507170834 | 15 | 291 | 4.8 | 11.3 | 0.00 | 0.66 | 0.66 | 77 | 994.1 |
| 20260507165832 | 15 | 289 | 6.4 | 11.3 | 0.00 | 0.66 | 0.66 | 75 | 994.0 |
| 20260507164829 | 16 | 282 | 6.4 | 11.3 | 0.00 | 0.66 | 0.66 | 74 | 994.1 |
| 20260507163827 | 16 | 281 | 6.4 | 12.9 | 0.00 | 0.66 | 0.66 | 74 | 993.7 |
| 20260507162825 | 16 | 280 | 4.8 | 11.3 | 0.00 | 0.66 | 0.66 | 74 | 993.7 |
| 20260507161843 | 17 | 282 | 6.4 | 12.9 | 0.00 | 0.66 | 0.66 | 73 | 993.6 |
| 20260507160821 | 17 | 282 | 6.4 | 16.1 | 0.03 | 0.66 | 0.66 | 72 | 993.5 |
| 20260507155819 | 17 | 282 | 6.4 | 17.7 | 0.03 | 0.66 | 0.66 | 73 | 993.5 |
| 20260507154818 | 17 | 292 | 6.4 | 11.3 | 0.03 | 0.66 | 0.66 | 77 | 993.2 |
| 20260507153815 | 17 | 287 | 4.8 | 11.3 | 0.03 | 0.66 | 0.66 | 76 | 993.4 |
| 20260507152833 | 18 | 287 | 4.8 | 11.3 | 0.03 | 0.66 | 0.66 | 78 | 993.2 |
| 20260507151811 | 17 | 287 | 1.6 | 8.0 | 0.05 | 0.66 | 0.66 | 82 | 993.1 |
| 20260507150809 | 17 | 293 | 3.2 | 9.7 | 0.03 | 0.64 | 0.64 | 80 | 992.9 |
| 20260507145807 | 17 | 288 | 1.6 | 6.4 | 0.03 | 0.64 | 0.64 | 84 | 993.0 |
| 20260507144825 | 17 | 270 | 1.6 | 6.4 | 0.05 | 0.64 | 0.64 | 86 | 993.0 |
| 20260507143803 | 17 | 290 | 3.2 | 11.3 | 0.20 | 0.64 | 0.64 | 84 | 993.1 |
| 20260507142821 | 17 | 0.0 | 1.6 | 0.20 | 0.64 | 0.64 | 86 | 993.0 | |
| 20260507141800 | 17 | 239 | 1.6 | 3.2 | 0.20 | 0.61 | 0.61 | 85 | 993.0 |
| 20260507140758 | 18 | 90 | 1.6 | 3.2 | 0.18 | 0.58 | 0.58 | 86 | 992.7 |
| 20260507135756 | 18 | 176 | 1.6 | 1.6 | 0.23 | 0.58 | 0.58 | 86 | 992.8 |
| 20260507134753 | 18 | 153 | 1.6 | 1.6 | 0.23 | 0.58 | 0.58 | 85 | 992.6 |
| 20260507133752 | 18 | 183 | 1.6 | 3.2 | 0.10 | 0.43 | 0.43 | 85 | 992.5 |
| 20260507132749 | 18 | 187 | 1.6 | 1.6 | 0.10 | 0.41 | 0.41 | 87 | 992.5 |
| 20260507131747 | 18 | 0.0 | 1.6 | 0.10 | 0.41 | 0.41 | 87 | 992.4 | |
| 20260507130746 | 18 | 164 | 1.6 | 1.6 | 0.10 | 0.41 | 0.41 | 87 | 992.3 |
| 20260507125803 | 18 | 225 | 1.6 | 3.2 | 0.03 | 0.36 | 0.36 | 86 | 992.2 |
| 20260507124741 | 18 | 14 | 1.6 | 1.6 | 0.00 | 0.33 | 0.33 | 86 | 992.1 |
| 20260507123739 | 18 | 90 | 1.6 | 1.6 | 0.05 | 0.33 | 0.33 | 86 | 992.2 |
| 20260507122737 | 18 | 139 | 1.6 | 1.6 | 0.28 | 0.33 | 0.33 | 85 | 992.3 |
| 20260507121735 | 18 | 157 | 1.6 | 1.6 | 0.33 | 0.33 | 0.33 | 84 | 992.1 |
| 20260507120753 | 18 | 359 | 1.6 | 1.6 | 0.33 | 0.33 | 0.33 | 82 | 992.1 |
| 20260507115731 | 19 | 0 | 1.6 | 4.8 | 0.33 | 0.33 | 0.33 | 78 | 992.1 |
| 20260507114729 | 20 | 270 | 1.6 | 4.8 | 0.33 | 0.33 | 0.33 | 74 | 992.2 |
| 20260507113727 | 21 | 239 | 1.6 | 6.4 | 0.28 | 0.28 | 0.28 | 68 | 992.2 |
| 20260507112806 | 22 | 270 | 3.2 | 17.7 | 0.03 | 0.03 | 0.03 | 57 | 992.0 |
| 20260507111723 | 23 | 270 | 4.8 | 12.9 | 0.00 | 0.00 | 0.00 | 50 | 991.4 |
| 20260507110801 | 24 | 231 | 3.2 | 17.7 | 0.00 | 0.00 | 0.00 | 48 | 991.1 |
| 20260507105718 | 24 | 207 | 1.6 | 6.4 | 0.00 | 0.00 | 0.00 | 49 | 991.0 |
| 20260507104737 | 23 | 173 | 1.6 | 9.7 | 0.00 | 0.00 | 0.00 | 50 | 991.1 |
| 20260507103716 | 23 | 194 | 1.6 | 8.0 | 0.00 | 0.00 | 0.00 | 51 | 991.2 |
| 20260507102713 | 23 | 213 | 1.6 | 4.8 | 0.00 | 0.00 | 0.00 | 52 | 991.3 |
| 20260507101731 | 23 | 232 | 1.6 | 4.8 | 0.00 | 0.00 | 0.00 | 53 | 991.2 |
| 20260507100710 | 23 | 225 | 1.6 | 9.7 | 0.00 | 0.00 | 0.00 | 53 | 991.1 |